Ohio State University, OH

6:59 AM EDT on June 28, 2017 (GMT -0400)
Ohio State University

Weather History for KOSU - April, 2014

Change the Weather History Date:

Sunday, April 6, 2014

  Actual Average Record
Temperature  
Mean Temperature 42 °F -  
Max Temperature 57 °F 59 °F 78 °F (2005)
Min Temperature 28 °F 37 °F 21 °F (2007)
Degree Days  
Heating Degree Days 22    
Moisture  
Dew Point 26 °F    
Average Humidity 54    
Maximum Humidity 92    
Minimum Humidity 29    
Precipitation  
Precipitation 0.00 in - - ()
Sea Level Pressure  
Sea Level Pressure 30.11 in    
Wind  
Wind Speed 3 mph (East)    
Max Wind Speed 10 mph    
Max Gust Speed 17 mph    
Visibility 10 miles    
Events      
Averages and records for this station are not official NWS values.
T = Trace of Precipitation, MM = Missing Value Source: NWS Daily Summary

Daily Weather History Graph

Daily Weather History Graph

Search for Another Location

Airport or City:

Trip Planner

Search our weather history database for the weather conditions in past years. The results will help you decide how hot, cold, wet, or windy it might be!

Date:

Astronomy

Apr. 06, 2014 Rise Set
Actual Time 7:08 AM EDT 8:01 PM EDT
Civil Twilight 6:40 AM EDT 8:29 PM EDT
Nautical Twilight 6:08 AM EDT 9:02 PM EDT
Astronomical Twilight 5:34 AM EDT 9:36 PM EDT
Moon 12:08 PM EDT (4/6) 1:57 AM EDT (4/6)
Length of Visible Light 13h 48m
Length of Day
12h 53m
Waxing Crescent, 43% of the Moon is Illuminated
Apr 6
Waxing Crescent
Apr 7
First Quarter
Apr 15
Full
Apr 22
Last Quarter
Apr 29
New

Hourly Weather History & Observations

Time (EDT) Temp. Windchill Dew Point Humidity Pressure Visibility Wind Dir Wind Speed Gust Speed Precip Events Conditions
12:53 AM 35.1 °F - 27.0 °F 72% 30.21 in 10.0 mi Calm Calm - N/A   Clear
1:53 AM 32.0 °F - 28.0 °F 85% 30.21 in 10.0 mi Calm Calm - N/A   Clear
2:53 AM 33.1 °F - 28.0 °F 82% 30.20 in 10.0 mi Calm Calm - N/A   Clear
3:53 AM 32.0 °F - 27.0 °F 82% 30.19 in 10.0 mi Calm Calm - N/A   Clear
4:53 AM 30.9 °F - 27.0 °F 85% 30.19 in 10.0 mi Calm Calm - N/A   Clear
5:53 AM 30.0 °F - 28.0 °F 92% 30.20 in 10.0 mi Calm Calm - N/A   Clear
6:53 AM 28.9 °F 25.2 °F 27.0 °F 92% 30.20 in 10.0 mi NNE 3.5 mph - N/A   Clear
7:53 AM 30.0 °F - 28.0 °F 92% 30.22 in 10.0 mi Calm Calm - N/A   Clear
9:53 AM 44.1 °F 40.1 °F 28.9 °F 55% 30.21 in 10.0 mi East 6.9 mph - N/A   Clear
10:53 AM 46.0 °F 41.4 °F 28.0 °F 50% 30.20 in 10.0 mi ESE 9.2 mph - N/A   Clear
11:53 AM 46.9 °F - 26.1 °F 44% 30.19 in 10.0 mi East 8.1 mph - N/A   Clear
12:53 PM 50.0 °F - 27.0 °F 41% 30.15 in 10.0 mi East 6.9 mph 17.3 mph N/A   Clear
1:53 PM 52.0 °F - 28.0 °F 40% 30.12 in 10.0 mi SE 9.2 mph - N/A   Clear
2:53 PM 54.0 °F - 26.1 °F 34% 30.07 in 10.0 mi ENE 10.4 mph - N/A   Clear
3:53 PM 55.9 °F - 24.1 °F 29% 30.05 in 10.0 mi ENE 5.8 mph - N/A   Clear
4:53 PM 57.0 °F - 25.0 °F 29% 30.05 in 10.0 mi ESE 5.8 mph - N/A   Clear
5:53 PM 57.0 °F - 25.0 °F 29% 30.02 in 10.0 mi East 6.9 mph - N/A   Clear
6:53 PM 55.0 °F - 24.1 °F 30% 30.01 in 10.0 mi East 10.4 mph - N/A   Clear
7:53 PM 51.1 °F - 25.0 °F 36% 30.02 in 10.0 mi East 6.9 mph - N/A   Clear
8:53 PM 52.0 °F - 21.0 °F 30% 30.00 in 10.0 mi ENE 4.6 mph - N/A   Clear
9:53 PM 51.1 °F - 23.0 °F 33% 29.99 in 10.0 mi ENE 5.8 mph - N/A   Clear
10:53 PM 48.9 °F - 26.1 °F 41% 29.98 in 10.0 mi ENE 5.8 mph - N/A   Clear
11:53 PM 46.9 °F - 24.1 °F 41% 29.96 in 10.0 mi ENE 4.6 mph - N/A   Clear